Miscellaneous Local Product
Issued by NWS Hastings, NE

Home | Current Version | Previous Version | Text Only | Print | Product List | Glossary Off
Versions: 1 2 3 4 5 6 7 8 9 10 11 12 13 14 15 16 17 18 19 20 21 22 23 24 25 26 27 28 29 30 31 32 33 34 35 36 37 38 39 40 41 42 43 44 45 46 47 48 49 50

945
AXUS43 KGID 101602
MISGRI

GID CWA HOURLY WEATHER ROUNDUP
NATIONAL WEATHER SERVICE HASTINGS NE
1000 AM CST SAT DEC 10 2016

NOTE: "FAIR" INDICATES FEW OR NO CLOUDS BELOW 12,000 FEET WITH NO
SIGNIFICANT WEATHER AND/OR OBSTRUCTIONS TO VISIBILITY.

...SOUTH CENTRAL NEBRASKA...

CITY           SKY/WX    TMP DP  RH WIND       PRES   REMARKS
GRAND ISLAND   CLOUDY    23  17  78 SE13      30.22F WCI  11
HASTINGS       MOSUNNY   26  16  65 SE14      30.21F WCI  14
KEARNEY        CLOUDY    25  14  63 SE17      30.17F WCI  11
ORD            CLOUDY    22  14  71 SE20G25   30.15F WCI   7
YORK           CLOUDY    25  18  74 SE10      30.27F WCI  15
AURORA         CLOUDY    25  19  78 SE12      30.24F WCI  14
LEXINGTON      CLOUDY    24  16  71 SE15      30.11F WCI  11
HOLDREGE       CLOUDY    23  16  75 SE15G21   30.13F WCI  10
HEBRON         CLOUDY    28  17  63 SE14      30.28S WCI  17

...NEBRASKA PANHANDLE...

CITY           SKY/WX    TMP DP  RH WIND       PRES   REMARKS
CHADRON        CLOUDY     7   2  80 CALM      29.94F
ALLIANCE       CLOUDY    18  15  88 SE14      29.87F WCI   4
SCOTTSBLUFF    CLOUDY    18  13  80 SE9       29.87F WCI   7
SIDNEY         CLOUDY    23  18  81 S13       29.89F WCI  11

...WESTERN AND NORTH CENTRAL NEBRASKA...

CITY           SKY/WX    TMP DP  RH WIND       PRES   REMARKS
VALENTINE      CLOUDY    10   5  80 E12       30.06F HAZE    WCI  -5
AINSWORTH      CLOUDY    17  16  95 SE10      30.09F WCI   5
ONEILL         CLOUDY    19  16  91 SE15      30.18F WCI   4
BROKEN BOW     CLOUDY    22  16  78 S17G28    30.09F WCI   8
IMPERIAL       CLOUDY    19  15  84 SE16      29.96F WCI   4
NORTH PLATTE   CLOUDY    21  14  74 SE8       30.06R WCI  11
MCCOOK         CLOUDY    20  14  77 SE14      30.07F WCI   7

...EASTERN NEBRASKA...

CITY           SKY/WX    TMP DP  RH WIND       PRES   REMARKS
NORFOLK        CLOUDY    20  16  84 SE10      30.27R WCI   9
SO SIOUX CITY  LGT SNOW  21  18  86 SE13      30.33F VSB 1   WCI   9
TEKAMAH        LGT SNOW  22  18  85 SE9       30.35F FOG     WCI  12
COLUMBUS       CLOUDY    23  16  74 SE12      30.28F WCI  12
ALBION         CLOUDY    21  17  85 SE13      30.22F WCI   9
OMAHA EPPLEY   FLURRIES  25  18  74 SE10      30.36F WCI  15
OFFUTT AFB     CLOUDY    26  17  70 SE10      30.35F WCI  16
MILLARD        CLOUDY    27  19  69 SE7       30.35F WCI  20
LINCOLN        CLOUDY    27  18  69 S9        30.34F WCI  18
NEBRASKA CITY  CLOUDY    27  14  59 SE8       30.34F WCI  18
BEATRICE       CLOUDY    29  18  62 SE10      30.31S WCI  20
FALLS CITY     CLOUDY    28  16  60 SE10      30.36F WCI  19

...NORTHERN KANSAS...

CITY           SKY/WX    TMP DP  RH WIND       PRES   REMARKS
GOODLAND       CLOUDY    21  19  92 S10       29.97F FOG     WCI  10
HILL CITY      CLOUDY    24  16  71 SE12      30.14F WCI  13
NORTON         SUNNY     23  12  63 SE12G18   30.11F WCI  12
PHILLIPSBURG   SUNNY     27  18  69 E13       30.17F WCI  16
SMITH CENTER   CLOUDY    25  18  74 SE13G18   30.21F WCI  13
BELOIT         CLOUDY    27  18  69 SE9       30.25F WCI  17
HAYS           CLOUDY    27  18  69 S14       30.17F WCI  16
RUSSELL        CLOUDY    27  17  66 S15       30.19S WCI  15
CONCORDIA      CLOUDY    27  18  69 SE12      30.27F WCI  17
SALINA         CLOUDY    31  18  58 SE10      30.29F WCI  22
TOPEKA         CLOUDY    31  19  61 SE8       30.37F WCI  23



USA.gov is the U.S. government's official web portal to all federal, state and local government web resources and services.